星链-1773 (STARLINK-1773 )

导读 | 豆包AI

STARLINK-1773是美国太空探索技术公司(SpaceX)星链计划中的一颗卫星,于北京时间2020年10月18日发射。星链计划旨在构建全球卫星互联网星座,该卫星入轨后,与其他星链卫星协同工作,为全球范围用户提供低延迟、高速率的互联网接入服务,进一步推动了星链星座的组网进程。

基本信息
目录编号:
46679
目录名称:
STARLINK-1773
国际标识:
2020-073K
轨道中心:
EARTH
卫星名称:
星链-1773
卫星全名:
星链-1773 (STARLINK-1773 )
卫星状态:
已陨落 最后检测时间 2025-08-12
发射日期:
2020-10-18 UTC
国别 :
美国 (US)
星等 :
--
轨道信息
数据来源 国际轨道数据
星历时间: 2025-08-12T19:15:02+0800
轨道信息已过期214天
半长轴: 6511.542km
偏心率: 0.0006915
轨道倾角: 53.010°
近地点辐角 272.486°
升交点赤经 22.651°
平近点角 191.056°
近地点: 128.904km
远地点: 137.91km
周期: 87.154分钟
每日圈数: 16.522547
详细信息
固有亮度:
5
最大亮度:
2.5
卫星平台:
Starlink V1.0
覆盖范围:
全球
运营商:
太空探索技术公司
运营商所在国:
美国
制造商(研发单位):
太空探索技术公司
制造商所在国:
美国
使用方式:
暂无
卫星简介
星链(Starlink)计划是由太空探索技术公司(SpaceX)提出的一个巨型低轨卫星互联网星座项目,计划在2019年至2024年间在太空搭建由约1.2万颗卫星组成的“星链”网络,其中1584颗将部署在地球上空550千米处的近地轨道,并从2020年开始工作。该卫星仍在工作。